Theta_e
301 301 301 301 301 301 301 301 301 302 302 302 302 302 302 303 303 304 304 303 303 304 305 305 305 305 305 306 307 306 305 305 304 304 304 304 304 305 305 306 306 307 307 307 307 308 309 309 309 309 310 310 311 311 313 313 314 316 317 315 313 311 311 312 312 312 312 311 311 311 310 308 306 305 305 305 304 301 300 300 299 301 301 299 299 299 299 298
301 301 301 301 301 301 301 301 301 301 301 302 302 302 302 303 303 303 304 303 303 304 304 305 305 306 306 305 306 307 307 305 304 304 304 304 304 305 305 306 306 307 308 308 308 308 309 309 310 310 310 311 311 312 313 313 312 313 312 311 310 310 310 310 311 310 310 310 310 311 310 309 308 307 307 305 303 302 301 300 299 299 298 297 298 299 298 299
301 301 301 301 301 301 301 301 301 301 301 302 302 302 302 302 303 303 304 303 303 303 304 304 305 306 306 306 306 307 308 307 304 304 304 304 305 305 305 306 307 307 308 308 309 308 308 309 309 310 311 310 310 311 311 311 311 311 310 309 309 309 309 309 309 309 309 308 308 308 308 307 307 307 305 303 302 301 300 300 299 298 297 297 297 298 298 299
301 301 301 301 301 301 301 301 301 301 301 301 301 302 302 302 303 303 303 303 303 303 303 304 304 305 305 307 307 307 309 308 303 303 304 304 305 305 305 306 307 308 308 308 309 309 308 309 309 310 310 310 309 309 309 309 309 309 309 308 307 307 308 308 309 308 308 307 306 306 305 303 303 305 305 304 302 300 299 299 299 298 298 298 297 298 299 300
302 302 302 302 302 302 302 301 301 301 301 301 302 302 302 303 303 303 303 304 304 304 304 304 304 305 305 305 307 308 309 308 303 303 304 304 304 305 305 306 307 308 308 309 309 309 308 309 309 309 310 309 309 309 308 308 308 307 307 307 307 307 306 307 308 308 308 307 306 305 304 302 302 302 302 302 301 299 299 298 298 298 298 298 297 297 298 298
302 302 302 302 302 302 302 302 302 302 302 302 302 302 302 303 303 303 303 304 304 304 304 304 304 305 305 304 305 307 308 305 303 303 304 304 304 304 305 306 307 307 308 308 309 309 309 309 309 309 309 308 308 308 307 308 308 306 305 306 306 306 306 306 306 307 307 306 305 304 303 302 301 300 299 300 299 298 298 298 298 297 297 297 297 297 297 296
302 302 302 302 302 302 302 302 302 302 302 302 302 302 302 302 303 303 303 303 303 304 304 304 304 304 305 305 304 304 304 302 302 303 303 304 304 304 305 306 307 307 307 308 308 308 309 309 309 309 308 308 307 307 306 307 307 305 305 305 305 305 305 305 305 305 305 305 304 304 303 302 301 299 299 299 298 298 298 297 297 297 297 297 296 296 296 296
302 302 302 302 302 302 302 302 302 302 302 302 302 302 302 303 303 303 303 303 303 304 304 304 305 304 305 306 305 304 302 301 302 303 303 304 304 304 305 305 306 306 307 307 308 308 308 308 308 309 308 308 308 307 307 306 306 305 305 305 305 305 305 305 305 304 304 304 303 303 302 301 300 299 299 298 298 298 298 297 297 297 297 296 296 296 295 295
302 302 302 302 302 302 302 302 302 302 302 303 303 303 303 303 303 303 303 303 303 303 304 304 304 304 305 305 306 304 301 300 301 303 303 304 304 304 304 305 305 306 306 307 307 307 307 308 308 308 308 308 308 308 308 307 305 305 305 305 305 305 305 305 305 305 304 304 303 302 301 301 300 300 299 298 298 298 298 297 297 297 296 296 296 295 295 295
302 302 302 302 302 302 302 302 302 302 303 303 303 303 303 303 303 304 303 304 304 304 304 304 304 305 305 305 305 303 301 301 302 303 304 304 304 304 304 305 305 306 306 306 307 307 307 307 307 307 307 307 307 307 307 306 305 305 305 305 305 305 305 305 305 305 305 305 304 303 302 302 302 302 300 298 298 298 298 297 297 297 296 296 296 295 295 295
302 302 303 303 303 303 302 302 302 303 303 304 303 304 304 303 304 303 304 304 304 304 304 304 305 305 306 305 304 302 301 301 302 303 304 304 304 304 304 304 305 305 306 306 306 306 307 307 307 307 307 306 306 306 306 306 306 305 305 305 305 305 305 305 305 305 305 304 304 304 303 303 303 302 300 299 298 298 298 297 297 297 297 296 296 296 296 295
302 302 303 303 303 303 303 303 302 303 303 304 304 304 304 304 304 303 304 304 304 304 304 305 305 306 306 304 302 301 301 301 301 302 303 304 304 304 304 304 304 305 305 306 306 306 306 307 307 307 307 307 306 306 306 306 306 306 306 305 305 305 305 305 305 305 305 304 304 304 304 304 303 302 300 299 299 298 298 298 297 297 297 297 296 296 296 295
302 302 302 302 302 303 303 303 303 303 304 304 304 304 304 304 304 304 304 304 304 305 305 305 305 305 306 303 301 301 302 301 301 301 303 304 304 304 304 304 304 305 305 306 306 306 306 307 307 307 307 307 306 306 306 306 307 307 307 306 306 306 304 305 305 305 304 304 303 304 305 305 302 301 300 299 299 298 298 298 298 297 297 297 296 296 296 295
302 302 302 302 302 303 303 303 303 303 304 304 304 304 304 304 304 304 304 304 304 304 305 306 306 306 305 303 302 302 302 302 301 302 303 304 304 304 304 304 304 305 305 305 306 306 306 306 307 307 307 306 306 306 306 307 307 307 307 307 307 307 305 304 305 304 304 304 303 304 306 305 301 300 300 299 299 298 298 298 298 298 297 297 296 296 296 295
302 302 302 302 303 303 303 303 303 303 303 304 304 304 304 304 304 304 304 304 305 305 305 306 307 307 305 303 303 302 302 303 302 302 302 304 304 304 304 304 304 304 304 305 306 306 306 307 307 307 307 307 306 306 307 307 307 306 307 308 308 308 305 304 305 305 304 304 304 304 305 305 301 300 300 299 299 299 299 299 298 298 297 297 297 296 296 295
302 302 302 303 303 303 303 303 303 303 303 304 304 304 304 304 304 304 304 304 305 305 305 306 306 308 307 304 304 303 302 303 302 301 302 303 304 304 304 303 303 304 304 305 306 307 308 308 308 307 306 306 306 307 307 308 308 307 308 309 308 307 306 304 304 304 304 304 304 304 304 304 302 301 300 299 299 299 299 299 298 298 298 297 297 296 296 295
302 303 303 303 303 303 303 304 303 303 304 304 304 304 304 304 304 305 304 304 305 305 306 306 305 308 307 304 304 303 302 302 302 302 302 302 303 304 303 303 302 303 305 306 306 308 309 309 309 308 305 305 305 307 310 310 309 308 308 308 306 306 305 305 304 304 304 304 304 304 304 304 302 300 300 299 299 299 300 299 299 298 298 298 297 296 296 295
303 303 303 303 303 303 304 304 304 304 304 304 305 305 304 305 305 305 305 306 306 307 307 306 307 309 307 303 302 301 302 302 302 301 302 302 302 302 302 303 303 304 306 307 307 308 310 308 307 306 305 304 303 305 309 309 307 307 307 307 306 305 305 305 305 304 304 304 304 304 305 304 302 300 300 299 299 299 300 300 299 298 298 298 297 297 297 296
303 303 303 303 304 304 304 304 304 305 304 305 305 305 306 307 306 304 305 307 306 307 307 305 306 308 306 302 301 302 303 303 302 301 302 303 302 303 302 303 305 306 307 309 309 308 308 306 306 306 304 303 302 303 305 305 305 306 306 307 306 306 305 305 304 304 303 303 304 304 305 305 303 300 300 300 299 299 299 300 299 299 298 298 298 297 297 297
304 304 303 304 304 304 304 304 304 304 304 305 305 305 307 310 311 305 303 304 302 302 303 302 303 304 303 301 301 303 304 304 302 302 303 303 304 306 305 306 307 307 307 309 310 308 306 305 304 304 303 301 302 302 303 304 305 305 306 307 306 305 305 305 304 304 304 303 304 305 305 305 304 302 301 300 300 299 299 300 299 299 299 299 298 298 298 297
304 304 304 304 304 304 304 304 304 304 304 304 304 305 305 308 312 307 302 302 301 301 302 301 302 302 301 301 301 302 303 303 303 303 303 303 304 307 307 308 309 308 307 308 309 307 304 304 303 302 301 300 301 302 303 304 304 305 306 307 307 306 305 305 305 304 304 304 304 304 304 304 305 305 303 301 300 299 299 300 300 299 299 299 298 298 298 298
304 304 304 304 304 304 304 304 304 304 304 304 304 305 304 305 308 306 304 303 301 301 302 301 302 302 302 301 301 302 302 302 303 303 303 303 304 307 307 307 308 307 306 307 309 308 304 303 302 301 300 300 302 303 303 303 304 306 306 307 307 305 303 304 305 305 304 304 304 304 304 304 304 305 304 302 300 300 300 300 300 300 299 299 299 299 298 298
303 304 304 304 304 304 304 305 304 304 304 304 304 304 304 304 304 305 306 306 304 302 301 302 301 301 302 302 301 302 301 301 302 301 302 303 303 305 305 306 308 307 306 306 307 307 305 302 300 300 300 300 301 303 302 302 303 306 306 306 305 302 301 302 303 303 303 302 303 303 303 303 304 304 304 303 301 300 300 300 300 300 300 299 299 299 299 298
303 303 304 304 304 304 304 304 304 304 304 303 304 303 303 303 303 303 305 307 307 304 302 303 302 302 302 302 302 303 302 301 301 300 301 303 303 305 304 305 307 307 306 305 304 304 303 300 299 300 301 301 302 302 301 300 303 305 304 303 302 301 300 300 301 301 301 302 303 303 304 305 305 305 305 304 302 301 301 300 300 300 300 300 299 299 299 298
303 303 304 304 304 304 304 304 304 304 304 303 303 303 303 302 302 302 304 309 309 306 305 304 304 303 302 303 302 302 303 303 301 300 301 301 303 305 305 305 306 307 307 306 304 303 302 300 300 300 301 302 303 302 302 301 302 303 302 301 301 300 300 300 301 302 302 304 304 304 306 308 306 306 306 304 302 301 301 301 300 300 300 300 300 299 299 298
303 304 303 304 304 304 304 304 303 303 304 303 303 303 303 303 303 302 305 312 311 307 307 306 306 304 302 303 302 303 306 305 302 301 300 301 303 305 307 306 305 306 305 304 303 303 303 302 301 302 302 304 304 302 302 302 302 303 301 300 301 300 301 301 303 303 303 304 304 304 306 307 307 306 306 304 302 301 301 301 300 300 300 300 300 299 299 299
303 303 304 304 304 304 304 303 303 303 304 303 303 303 303 303 303 302 308 315 312 307 306 305 305 304 302 302 302 304 307 305 304 302 301 302 303 304 307 306 305 305 302 303 306 304 302 302 302 303 304 304 304 302 302 301 302 305 302 300 301 300 301 303 303 303 303 303 304 305 305 307 308 306 304 305 303 302 302 301 301 300 300 300 300 299 299 299
303 303 304 304 304 304 304 303 303 303 303 303 303 302 303 303 302 304 311 314 308 305 304 304 304 302 303 304 303 303 304 303 304 304 301 302 302 303 306 305 305 305 302 306 310 304 300 301 302 303 304 303 302 301 301 301 302 304 302 301 301 300 301 303 303 303 303 305 307 307 306 307 308 306 304 304 303 302 302 301 301 300 300 300 300 300 299 299
303 304 304 304 304 303 303 303 303 303 303 303 302 303 303 302 302 307 313 311 306 305 304 304 304 302 303 305 303 302 303 303 303 303 302 302 302 302 304 303 304 305 304 305 308 303 300 300 301 302 302 301 300 300 300 300 301 302 301 301 302 302 302 303 303 303 304 306 307 306 305 305 306 305 303 303 302 300 301 300 300 300 300 300 300 300 299 299
303 303 304 303 303 303 303 303 303 303 303 302 303 303 302 303 307 313 313 308 306 306 303 304 304 302 303 306 304 302 303 303 302 303 303 302 301 301 302 302 303 305 304 303 303 302 299 300 301 300 299 300 300 300 300 300 300 300 301 302 304 304 303 304 304 304 305 307 304 302 302 302 303 304 301 301 300 299 299 299 298 299 299 300 301 300 300 299
303 303 303 303 303 303 303 303 303 303 302 303 303 302 304 308 313 316 310 305 306 307 304 304 304 302 303 305 303 302 303 303 302 303 304 302 301 300 301 301 302 305 306 304 303 301 300 302 301 298 298 299 300 301 301 300 299 300 302 303 305 306 304 304 305 304 307 308 301 299 301 302 303 302 299 299 299 298 298 298 298 299 299 300 300 300 299 298
303 303 303 304 304 303 303 303 303 302 302 303 302 303 309 314 314 312 308 304 307 307 304 304 304 303 304 304 302 301 303 303 302 303 304 304 301 299 300 300 300 306 308 306 305 304 303 301 300 299 299 299 300 302 302 302 301 301 303 303 305 308 306 306 307 306 309 306 300 299 301 302 302 300 298 298 298 298 298 298 298 298 299 299 299 299 298 298
303 304 304 304 304 303 303 303 302 303 303 303 303 306 313 315 312 310 308 306 306 305 303 302 303 303 304 304 301 300 302 302 302 303 304 304 303 301 300 298 298 303 307 306 305 305 304 302 300 300 300 299 300 300 301 301 301 301 302 302 305 307 305 306 308 308 309 305 300 300 301 304 304 300 298 298 297 298 298 298 298 297 297 298 298 298 297 297
303 304 304 304 304 304 303 303 303 303 303 303 307 312 315 313 311 308 307 304 301 302 302 302 303 304 303 302 301 300 302 303 302 303 303 304 303 302 300 298 298 300 302 304 303 303 305 305 302 300 299 299 299 299 299 299 300 301 302 301 303 304 302 304 306 307 308 305 302 301 302 305 305 300 298 298 297 298 297 297 297 296 296 296 296 296 296 296
303 304 304 304 304 304 304 304 303 303 303 305 311 317 316 311 310 309 307 303 300 302 303 301 303 305 303 301 300 300 302 304 303 302 302 303 302 300 299 297 297 298 299 303 303 301 304 306 302 299 298 298 298 298 298 299 301 302 302 303 303 302 300 303 305 303 303 303 302 303 303 303 301 299 298 298 297 297 297 297 297 296 296 296 296 296 296 296
303 304 304 304 304 304 304 304 303 303 303 307 315 318 313 308 308 308 306 303 302 303 303 303 305 307 305 303 302 301 301 302 303 303 302 301 301 300 299 297 297 297 298 302 301 300 302 304 302 299 298 297 297 297 297 299 301 301 302 303 301 299 298 301 303 301 301 302 304 304 304 301 299 299 299 298 298 297 297 297 297 297 296 296 296 296 295 295
303 304 304 304 304 304 305 304 304 304 304 310 319 315 306 301 301 302 302 302 301 301 303 305 306 305 305 305 303 302 302 302 303 305 304 302 301 300 299 298 297 296 296 299 301 299 300 302 302 300 300 297 295 297 298 298 299 301 302 301 299 298 299 300 302 302 302 303 303 303 302 301 301 300 299 298 298 297 296 296 296 296 296 296 296 296 295 295
303 303 303 304 304 304 304 304 304 304 305 313 317 309 301 299 298 299 300 300 299 299 302 305 305 304 304 305 303 301 303 305 305 304 303 303 303 300 299 299 297 296 295 297 300 299 298 302 302 300 301 299 296 298 300 299 298 299 300 299 299 300 301 301 301 302 302 301 302 303 302 301 301 300 299 297 297 297 296 296 296 296 296 296 296 295 295 295
303 304 304 303 304 304 304 304 303 303 308 315 315 307 301 299 299 297 298 299 299 300 302 304 303 303 303 303 303 301 302 304 304 303 303 304 304 300 298 298 297 297 296 296 298 299 298 302 303 301 300 299 298 299 300 299 297 298 299 299 300 300 301 301 300 300 301 301 302 303 302 301 300 298 298 297 296 296 296 296 295 296 296 296 295 295 295 294
302 304 305 303 304 304 304 304 303 306 311 312 309 305 300 299 299 297 296 298 298 300 302 302 302 303 303 302 301 300 301 302 301 303 303 301 302 301 298 297 296 297 296 295 297 298 299 300 302 302 301 301 301 299 298 298 298 299 300 300 299 299 300 300 300 299 300 300 301 300 300 300 299 298 297 297 296 296 296 296 295 296 296 295 295 295 294 294
302 305 305 303 303 304 303 305 304 304 307 304 302 300 298 299 300 297 295 296 297 297 299 300 300 302 302 302 301 299 300 302 301 301 302 300 301 301 298 295 295 295 295 296 297 298 299 299 300 301 301 302 301 296 296 297 298 299 299 299 297 298 300 300 300 300 298 298 299 299 299 300 298 298 297 296 297 296 296 296 296 295 295 295 295 295 294 294
303 306 305 302 303 303 304 307 304 301 303 302 299 299 299 300 299 298 297 296 296 296 297 299 300 300 299 300 301 299 300 302 301 301 301 299 300 300 296 294 295 295 295 297 298 296 296 297 299 301 301 299 297 294 294 294 296 298 298 297 297 298 298 298 299 299 297 297 298 298 299 299 298 297 297 297 296 296 296 296 295 295 295 295 295 294 294 294
302 304 303 302 303 302 306 310 306 300 298 297 296 296 297 299 299 299 298 296 296 297 298 299 299 299 299 298 299 300 300 301 301 300 300 299 299 298 295 294 295 295 296 297 297 295 295 297 299 301 300 296 294 293 293 291 294 298 297 297 297 297 297 297 297 297 296 297 298 298 300 301 298 296 297 297 297 296 296 296 295 295 295 295 295 294 294 294
300 302 301 302 303 303 308 312 309 302 297 296 297 297 297 297 298 298 298 297 297 298 298 298 298 298 298 296 297 298 299 301 301 299 299 300 298 296 295 295 294 295 296 297 297 296 297 299 300 301 302 300 298 297 296 295 296 298 297 297 297 296 296 296 295 295 296 297 297 297 299 301 298 297 297 297 297 296 296 296 295 295 295 295 295 294 294 294
302 304 303 302 302 303 306 307 306 303 299 299 300 298 297 297 296 297 298 297 296 297 298 298 298 297 296 295 297 296 295 298 301 299 298 298 297 295 295 294 294 295 295 295 294 295 297 299 299 300 302 303 303 302 300 299 297 297 297 297 296 296 295 295 295 296 297 297 297 298 299 299 298 298 298 297 297 296 296 295 295 295 295 295 295 294 294 294
302 306 306 304 303 302 302 301 302 302 300 302 303 300 299 298 296 295 296 297 296 296 297 297 296 297 297 296 298 298 296 295 298 298 297 297 298 295 294 293 294 295 295 293 294 295 295 297 297 298 301 301 301 301 299 298 297 297 297 296 297 297 296 295 296 296 297 297 297 298 298 297 297 297 297 297 296 295 295 295 295 295 295 295 294 294 295 294
303 305 304 304 305 304 302 301 301 301 301 303 304 301 299 299 297 296 296 296 297 297 297 297 296 298 299 298 298 299 297 295 296 298 298 297 296 294 293 293 293 295 295 294 294 295 296 297 297 298 299 299 298 298 297 296 296 296 296 296 296 296 296 296 296 296 296 297 296 297 297 297 297 296 296 296 295 295 295 295 295 295 295 295 295 295 295 294
304 303 299 300 306 306 305 303 300 299 300 300 301 300 299 299 298 298 297 296 296 297 298 299 299 299 300 299 300 301 299 298 299 299 298 297 295 294 294 293 293 294 295 293 293 294 295 298 297 296 297 297 296 296 296 296 296 295 296 296 296 296 296 296 296 295 295 296 296 296 296 296 295 295 295 295 295 295 295 295 295 295 295 295 295 295 294 294
301 301 298 299 302 300 300 300 298 298 300 300 299 300 300 300 300 299 297 296 297 296 297 301 302 300 299 299 300 301 300 301 301 300 298 298 296 296 297 296 294 294 294 293 292 292 295 297 296 295 296 295 295 296 295 296 296 296 296 296 296 295 295 295 295 295 295 295 295 295 295 295 295 295 295 295 295 295 295 295 295 295 295 295 295 295 294 294
300 301 299 299 299 296 296 298 298 300 301 300 301 301 300 301 301 299 297 298 300 298 296 300 302 300 298 298 299 300 300 300 301 300 299 300 298 297 298 298 296 293 293 294 293 292 294 297 296 295 295 296 296 296 296 296 296 295 294 294 294 295 295 295 295 295 295 295 295 295 295 295 295 295 295 295 295 295 295 295 295 295 295 295 295 295 294 294
299 300 299 301 301 297 297 297 297 301 303 301 303 303 300 301 301 299 298 298 299 299 298 299 301 299 297 298 298 299 298 297 298 298 297 298 298 297 297 297 297 295 294 293 293 292 294 296 296 295 296 297 297 297 297 296 295 294 295 296 294 294 296 297 296 296 296 295 295 296 295 295 296 295 295 295 295 295 295 295 295 295 295 295 295 294 294 294
298 298 298 302 304 299 298 298 297 301 304 301 301 301 300 301 300 299 301 299 296 297 297 298 299 299 299 299 299 298 297 296 296 296 295 296 296 295 296 295 296 296 295 293 293 293 293 295 295 296 297 297 297 297 296 295 297 299 301 302 299 296 296 297 297 296 296 296 295 296 296 296 295 295 295 295 294 294 295 295 295 295 295 295 295 294 294 294
Wind_Speed
13 14 14 14 15 15 15 15 14 15 16 19 21 20 19 19 16 14 14 16 23 27 24 18 9 6 6 9 14 21 31 34 35 41 43 36 30 30 31 33 29 23 24 21 19 19 14 11 9 6 5 6 7 7 8 12 11 4 2 6 6 5 6 6 6 8 8 8 8 12 14 14 12 14 17 17 22 24 23 23 19 18 17 14 13 12 14 16
13 13 13 13 14 14 15 14 13 13 14 16 19 20 20 19 17 14 12 13 18 22 23 24 21 14 9 8 9 11 23 30 35 40 38 32 29 30 31 32 29 22 24 24 20 18 16 13 11 8 9 11 9 10 9 13 19 11 4 6 6 5 8 10 11 12 11 10 12 13 14 14 12 12 13 13 15 18 17 17 17 18 16 13 14 16 18 19
12 12 12 12 13 13 14 14 14 14 13 14 16 19 20 20 19 16 13 11 13 15 18 22 25 23 17 10 9 5 11 22 35 39 35 33 31 30 30 31 28 22 22 21 17 15 13 11 9 11 16 16 15 17 13 12 17 14 9 6 5 7 10 15 15 15 14 14 15 14 15 16 13 12 14 15 15 15 13 11 13 14 13 14 16 18 19 18
13 12 11 11 11 12 12 13 14 14 14 14 14 17 19 21 21 19 15 12 12 12 12 17 24 25 22 16 6 4 1 11 29 35 32 33 33 30 30 31 27 22 22 18 13 11 11 11 10 13 16 15 19 23 17 13 12 11 10 6 6 9 10 14 15 15 16 15 15 14 15 15 15 13 12 14 12 10 10 11 12 13 13 14 15 15 15 14
13 12 12 11 11 12 12 12 12 13 15 15 15 16 17 18 19 20 19 14 13 12 11 11 16 22 24 24 15 5 1 2 19 30 30 32 32 31 29 29 25 20 20 19 16 14 12 13 15 16 15 12 16 17 14 15 15 12 11 10 11 10 9 12 14 14 14 15 14 13 12 10 14 18 15 15 10 7 9 10 12 13 13 12 13 13 13 14
13 12 12 11 11 12 12 12 12 12 13 14 16 16 17 17 15 17 19 18 17 16 16 12 9 12 19 27 26 22 16 4 17 27 29 31 30 31 29 25 25 20 17 21 23 19 17 17 18 19 15 12 14 13 13 16 15 11 10 14 15 13 12 12 13 14 13 15 14 12 12 14 16 16 18 20 14 10 11 10 11 12 13 13 11 10 11 13
13 12 11 11 11 11 12 12 12 11 11 12 13 15 17 17 16 15 14 16 19 19 19 17 14 9 10 19 24 32 30 14 20 25 26 29 27 30 30 22 24 23 18 23 26 24 22 21 18 18 14 11 14 15 21 24 20 15 9 12 17 16 17 15 16 17 17 17 15 14 14 15 15 11 14 18 14 12 12 12 12 12 12 12 11 10 10 9
13 13 12 11 11 11 12 12 12 12 11 10 11 13 15 15 17 17 14 12 13 18 21 20 19 12 8 11 13 28 32 21 23 25 25 26 24 28 29 23 24 25 23 25 27 25 25 24 19 17 12 10 13 13 22 25 17 13 10 12 16 16 17 16 17 17 17 18 16 18 16 15 17 14 15 15 12 12 12 12 12 12 11 10 10 10 9 9
14 14 14 13 13 13 13 12 12 11 11 10 9 11 12 13 14 16 17 15 11 11 16 19 19 16 13 13 15 21 22 21 21 23 24 25 25 26 28 29 27 24 25 25 27 27 23 22 21 18 13 14 15 10 16 17 8 10 14 15 15 15 15 14 14 14 13 14 15 16 13 15 18 14 12 10 10 11 11 11 11 11 10 9 9 9 9 9
14 14 15 15 16 16 15 13 12 11 10 10 9 9 10 10 11 12 13 18 18 12 11 13 13 16 16 21 27 18 13 18 19 20 23 23 25 26 26 30 28 25 25 22 25 27 21 16 16 17 16 17 17 14 17 15 10 15 19 17 16 15 13 12 12 11 10 9 10 11 9 11 10 4 5 7 10 11 11 11 10 10 10 9 9 9 9 9
12 13 14 15 16 16 16 14 13 11 10 9 9 10 10 9 11 11 11 14 18 18 16 13 12 14 18 28 32 15 13 18 18 19 21 21 24 26 25 27 27 26 25 23 24 24 21 14 11 12 13 17 19 20 21 17 17 19 18 16 14 13 11 9 8 6 6 6 6 8 7 6 5 2 7 11 11 11 11 11 10 10 10 10 9 9 9 8
10 10 11 12 13 14 14 14 13 11 9 8 8 9 10 9 10 11 11 11 14 15 15 17 18 15 19 32 31 16 15 17 16 18 18 19 23 23 22 23 24 24 23 25 25 24 22 19 16 12 10 13 14 12 14 15 18 17 14 11 8 10 8 6 6 4 3 3 3 4 3 4 4 5 12 14 11 11 11 11 10 10 10 9 9 8 8 8
9 9 9 10 11 12 12 13 13 12 11 8 7 8 8 8 10 11 11 9 11 13 12 12 15 19 23 26 24 19 15 16 14 12 13 17 21 20 19 20 21 21 21 23 23 23 23 22 23 21 15 13 9 8 10 9 10 10 8 6 5 6 4 5 5 3 2 4 2 1 1 2 4 8 13 13 12 12 11 10 10 9 9 9 8 8 8 7
10 10 10 11 11 11 11 12 13 13 12 9 6 7 8 8 9 10 11 11 10 12 13 10 8 15 23 20 18 21 17 14 11 8 11 14 15 18 18 18 19 18 19 20 20 20 19 18 21 21 18 15 11 11 9 4 3 2 2 3 2 2 2 3 3 4 2 3 0 2 2 1 5 8 12 12 12 12 11 11 9 9 8 8 8 7 7 7
10 11 11 11 11 10 11 11 12 15 15 13 8 7 8 9 10 11 13 12 12 12 11 12 10 11 17 15 16 21 18 16 14 11 12 11 11 14 16 18 19 17 16 17 18 17 15 15 17 15 11 8 6 6 4 3 3 1 1 1 2 2 3 2 3 4 3 0 2 3 2 1 5 10 13 12 12 12 11 11 10 9 9 8 8 8 7 7
12 12 12 12 11 10 10 9 10 15 19 19 15 11 9 7 6 7 8 7 10 14 11 11 14 15 13 9 12 20 23 24 21 14 10 10 10 11 12 14 15 15 14 13 14 14 12 13 14 14 12 5 1 2 1 2 1 1 1 2 4 3 2 2 3 6 4 2 3 5 2 1 5 12 14 13 12 12 10 12 11 10 10 9 9 9 8 8
13 13 12 12 11 10 9 8 7 10 15 19 20 19 18 16 11 6 5 5 5 11 15 12 9 11 13 11 11 18 25 26 25 17 10 9 8 7 9 12 10 9 10 8 11 13 11 11 9 9 13 9 6 5 1 3 4 4 4 2 1 2 1 1 2 6 7 3 3 5 4 2 6 14 17 16 15 13 11 12 12 11 11 10 10 10 9 9
13 13 12 12 11 10 9 8 6 6 8 10 12 13 16 19 19 15 11 6 4 6 12 15 9 5 9 18 17 16 20 24 27 24 15 10 9 8 8 12 12 8 6 5 11 15 11 11 9 5 8 9 8 7 3 3 4 5 6 3 2 2 1 1 2 4 7 4 4 4 6 4 7 12 16 17 16 15 13 13 13 13 12 11 11 11 10 10
13 13 12 12 11 10 9 8 8 6 7 8 9 7 7 9 12 18 20 17 15 10 6 14 14 3 1 16 19 14 14 22 28 25 18 12 11 10 8 10 12 13 10 4 9 16 10 9 10 6 6 7 8 7 5 3 4 5 6 4 4 3 1 2 2 3 6 4 5 5 7 5 4 9 13 17 17 16 15 14 14 14 14 13 12 12 12 11
12 12 12 12 11 10 8 7 7 6 6 8 10 8 5 4 3 11 23 27 26 18 10 12 13 6 0 12 21 16 11 19 26 24 19 15 11 11 13 11 8 12 11 3 5 12 11 8 7 5 5 7 7 7 6 5 6 6 6 4 3 2 2 2 2 3 5 3 5 5 7 7 5 6 13 19 17 15 15 14 15 15 14 14 13 13 13 11
10 11 11 11 10 10 9 8 6 6 5 7 10 9 6 5 2 5 16 22 20 19 18 18 17 13 7 9 18 20 15 17 22 22 18 16 12 9 14 14 5 7 10 4 2 8 12 8 5 6 6 8 7 6 7 7 7 6 5 5 4 2 4 4 2 3 3 1 5 7 8 8 7 6 11 19 16 14 17 15 14 15 14 14 13 13 12 11
10 10 10 10 10 9 9 9 8 7 7 9 9 9 9 10 8 8 10 11 12 16 17 18 19 18 14 11 13 20 21 18 20 24 19 16 16 11 12 13 6 4 9 5 1 4 8 5 5 7 8 8 7 5 6 7 7 6 4 4 4 4 6 5 3 2 2 0 4 7 7 9 9 8 8 17 17 15 18 17 14 14 13 13 13 12 12 11
10 10 10 10 10 10 9 9 10 8 8 9 9 9 11 12 10 9 8 7 8 13 14 15 19 21 20 16 11 14 21 17 16 24 24 19 17 14 11 9 5 5 9 8 5 4 4 3 6 8 7 7 6 5 8 7 4 3 4 4 4 5 5 3 3 5 7 6 7 7 6 10 9 8 8 14 21 15 15 15 13 12 12 12 12 12 12 12
11 11 11 11 11 10 10 9 10 9 9 10 9 9 9 8 6 6 5 4 4 8 11 13 18 21 21 19 12 9 15 17 17 23 26 22 15 11 9 6 5 5 6 8 9 8 3 1 5 6 4 4 6 6 8 6 4 3 5 5 3 6 6 5 7 9 10 8 7 5 5 6 4 5 6 9 17 14 11 12 11 11 10 10 11 11 12 12
11 11 11 12 11 11 9 8 10 10 11 10 8 7 5 3 2 3 3 3 2 4 8 11 13 17 19 20 16 7 7 14 20 23 23 22 17 8 5 6 5 4 5 6 7 7 4 3 4 4 3 3 4 4 6 5 4 3 3 3 3 6 7 8 8 8 6 4 1 2 3 3 3 2 3 5 10 9 8 10 10 11 11 11 11 10 11 11
11 11 12 11 11 11 8 8 12 11 9 9 9 7 4 2 1 3 2 1 1 4 7 8 8 13 17 20 18 6 2 9 17 22 22 20 18 10 4 6 5 4 4 4 3 2 5 7 6 4 4 5 1 3 5 4 4 3 1 1 4 5 7 7 7 5 3 4 2 2 0 3 4 6 4 4 8 7 7 8 9 11 12 13 13 13 11 11
10 11 12 11 11 11 8 8 10 10 8 9 9 6 4 3 0 2 2 2 2 4 5 7 6 10 13 18 20 6 1 9 11 18 23 18 17 12 6 5 4 4 3 2 3 2 4 9 9 7 5 4 3 3 4 5 4 3 2 2 5 6 6 6 5 4 3 5 4 2 2 3 3 5 7 6 7 5 4 4 8 12 15 15 14 13 12 11
10 11 11 12 11 11 10 9 9 10 10 9 8 6 4 3 2 2 2 2 2 3 4 5 5 9 9 13 21 12 3 10 7 11 21 19 17 12 6 6 4 3 5 2 2 2 4 6 7 8 6 4 4 4 5 5 2 2 2 6 6 5 5 5 4 4 4 4 3 2 2 2 2 3 5 7 8 6 6 4 4 5 8 13 14 12 11 9
10 10 11 11 11 11 10 9 9 10 10 9 9 7 5 5 2 1 2 1 2 2 3 5 4 10 11 7 16 16 10 11 8 9 18 19 18 11 4 6 6 3 8 7 3 2 3 4 4 5 3 3 4 6 6 3 3 6 9 9 6 5 4 4 3 4 4 2 1 3 3 1 1 2 5 6 6 6 7 6 11 18 18 9 8 9 8 6
10 10 11 11 10 10 9 8 9 10 10 10 9 8 6 4 0 2 2 1 1 1 3 6 3 9 14 5 8 16 12 10 12 12 14 15 19 17 6 4 8 3 4 8 6 3 3 3 3 3 2 3 5 8 8 5 7 9 10 8 6 3 2 3 4 2 2 1 1 3 4 2 1 2 4 5 5 5 5 5 9 16 21 18 9 2 4 2
11 11 11 11 10 11 10 10 11 10 10 10 10 9 5 1 2 2 1 1 1 2 3 5 4 6 10 4 4 12 9 8 14 12 10 11 16 21 12 4 8 5 2 4 4 2 2 2 2 2 3 5 5 6 6 7 7 6 4 5 5 1 0 1 2 1 1 0 1 3 4 2 1 1 4 5 5 6 6 5 7 12 17 17 11 6 4 1
11 12 12 12 11 12 11 11 11 11 11 11 10 8 2 1 2 1 0 0 1 2 2 2 3 4 4 3 3 7 4 5 12 9 5 5 7 12 11 5 6 3 2 4 2 1 1 1 1 1 3 6 4 4 3 2 3 4 3 5 5 3 2 2 1 1 1 1 3 2 4 2 2 2 4 4 5 6 8 7 9 13 18 18 14 10 7 4
11 12 12 12 12 11 11 11 12 11 11 12 10 5 2 2 1 1 0 2 1 1 1 1 3 4 3 2 3 4 2 1 7 8 5 4 5 5 9 10 8 2 0 4 4 3 2 2 2 1 3 7 6 3 2 2 4 5 5 4 4 3 3 3 3 3 1 1 2 4 3 2 2 2 3 4 5 8 10 11 12 13 15 15 12 9 8 7
11 11 11 11 11 11 11 10 11 11 11 12 7 3 5 2 0 0 0 1 1 1 1 1 3 3 2 3 1 2 2 1 3 7 6 4 5 4 6 10 12 5 2 2 3 3 2 2 3 2 2 5 5 3 1 3 4 4 3 2 3 3 2 1 2 3 3 4 4 1 2 1 1 1 1 4 8 10 10 9 10 11 10 9 8 8 9 10
10 11 11 10 10 10 11 11 10 10 11 10 4 3 4 1 1 1 1 0 1 1 1 1 2 2 1 2 1 1 2 1 2 5 5 4 3 3 3 5 9 7 2 2 2 2 2 2 2 1 1 2 3 2 2 2 2 3 2 2 2 1 1 2 3 2 2 2 4 2 1 1 2 3 3 5 10 10 10 9 9 9 8 7 7 9 11 12
9 9 9 9 10 11 11 11 10 10 10 7 4 3 1 1 1 1 1 1 1 2 2 1 2 2 1 1 1 2 1 1 2 2 3 3 3 3 2 1 5 7 3 2 2 2 3 3 3 1 0 2 3 3 3 3 1 2 2 2 0 1 3 1 3 2 1 1 2 2 1 2 2 2 2 5 8 7 8 10 9 9 9 9 10 12 13 15
9 9 9 9 11 12 11 10 9 8 7 5 5 2 1 1 1 1 2 2 0 1 1 1 1 2 1 1 2 4 3 1 3 2 1 1 2 2 2 1 3 5 4 2 1 1 2 4 2 1 1 2 2 2 3 3 1 1 1 1 0 2 3 1 1 2 2 2 3 3 3 2 1 1 1 4 5 4 6 9 10 11 13 14 14 15 16 17
8 8 7 9 11 11 10 9 8 5 5 5 4 2 0 1 1 0 1 2 0 1 0 1 1 1 1 1 1 4 4 2 3 3 2 1 1 1 2 1 3 5 4 3 1 1 1 2 2 1 1 2 3 2 3 3 1 3 0 2 1 3 1 1 1 2 3 3 4 3 4 4 2 1 2 4 4 5 7 7 8 12 14 14 15 16 17 18
8 6 5 8 11 11 9 8 6 3 4 5 3 1 1 1 1 1 0 1 0 0 1 1 1 2 2 2 1 2 3 3 4 2 1 1 1 1 1 1 2 4 6 4 1 1 0 1 2 3 1 2 2 2 2 2 2 2 1 2 2 2 1 1 1 1 2 3 3 4 4 2 1 1 2 4 5 7 7 6 7 11 14 15 16 17 18 19
8 5 4 8 10 10 9 6 4 4 4 3 2 1 1 2 2 1 2 1 0 1 2 1 1 1 2 1 1 1 2 2 3 2 1 1 1 1 2 2 2 4 6 4 1 2 1 2 2 3 1 2 1 2 2 1 1 2 2 3 2 1 0 1 1 1 1 2 2 4 5 2 2 0 3 5 4 5 7 7 8 12 16 18 18 19 19 20
7 3 3 8 9 8 7 5 7 7 3 2 3 2 1 1 2 2 3 3 2 2 2 2 1 2 1 1 0 1 1 1 2 2 2 1 1 1 1 2 3 5 5 3 0 2 2 0 2 4 3 2 1 2 3 1 1 1 1 3 2 1 2 2 2 1 1 1 1 3 6 5 2 2 4 3 2 4 8 9 11 15 18 19 20 20 21 22
5 2 4 9 8 6 5 5 7 6 3 2 3 2 2 2 2 1 2 3 3 3 3 2 2 3 2 0 1 1 2 2 2 2 1 2 2 1 1 2 3 4 3 1 2 2 1 1 2 4 3 2 2 2 4 2 1 1 1 2 1 0 3 2 2 2 2 2 2 2 4 5 3 3 4 2 3 5 10 13 15 18 20 20 20 21 22 23
4 4 6 7 6 4 3 4 4 5 3 2 2 3 3 3 2 1 1 3 2 2 3 2 2 2 2 1 1 1 2 1 1 1 1 1 2 2 2 2 3 5 4 0 1 2 1 1 1 4 2 3 1 1 3 3 2 2 1 1 1 2 4 3 3 0 1 2 1 1 4 5 3 2 3 3 5 7 13 18 20 20 20 21 22 23 25 26
5 5 5 7 7 4 2 3 2 3 2 2 3 3 3 3 3 2 2 3 2 2 1 1 1 2 2 2 3 1 1 1 1 1 0 1 1 2 1 1 3 5 5 1 2 4 2 1 1 4 3 2 2 2 3 3 2 2 2 1 2 4 4 2 0 2 1 4 4 3 4 4 3 3 4 5 9 14 19 22 22 20 21 23 24 26 27 28
5 3 4 8 9 4 4 4 4 5 3 3 3 2 2 3 3 3 3 3 3 3 2 1 2 3 3 2 3 2 1 1 1 1 0 1 0 2 1 1 1 4 4 2 3 3 1 0 1 2 2 3 3 2 2 2 3 3 1 1 3 4 6 3 0 1 2 4 5 4 5 7 5 5 6 9 11 14 19 23 22 21 23 25 26 27 27 26
4 2 2 6 9 9 10 7 6 7 4 3 3 1 2 2 1 3 4 3 2 3 3 2 2 3 2 1 1 2 1 1 1 1 1 1 1 2 0 1 2 3 3 3 4 3 1 1 1 3 4 4 4 3 1 3 5 5 3 3 4 4 6 5 2 3 3 2 4 7 10 13 12 8 8 10 10 12 17 21 21 22 23 25 26 25 24 25
2 2 1 3 6 9 11 9 7 7 5 4 2 2 3 3 2 2 2 1 2 2 2 1 1 1 1 1 1 1 1 1 1 0 1 1 1 1 1 1 2 2 2 2 3 2 1 2 2 4 6 7 7 7 5 5 8 8 6 7 7 5 4 5 4 5 1 3 6 7 6 11 14 10 10 12 12 12 16 20 22 22 24 25 25 24 26 27
1 1 1 1 1 2 4 5 7 8 7 3 2 2 3 3 2 2 1 1 2 2 1 0 2 3 2 1 1 1 2 0 1 1 1 1 0 1 1 1 3 4 4 2 3 3 1 2 1 1 5 7 8 9 9 8 9 8 7 9 9 6 6 7 9 8 4 4 9 8 7 12 15 12 12 15 15 15 18 22 24 25 25 25 25 26 26 26
3 4 4 4 3 3 3 4 7 9 8 5 2 1 2 4 3 2 2 2 0 2 2 1 2 5 4 1 1 1 2 0 2 2 1 1 1 1 1 1 3 5 4 2 1 2 1 1 1 2 6 8 9 10 9 9 9 7 8 10 10 8 7 8 10 9 8 11 15 14 14 16 16 13 15 19 21 21 23 24 25 25 24 25 26 28 27 27
4 4 4 5 5 6 7 6 5 4 3 2 1 2 3 4 3 2 3 3 1 2 4 1 1 4 4 2 1 1 1 2 2 1 1 2 1 2 2 0 3 4 2 1 1 1 1 1 1 2 4 8 7 5 4 7 8 8 11 11 9 8 8 8 10 8 8 12 13 13 15 15 12 13 16 20 22 22 22 23 24 24 25 26 28 29 30 29
3 3 5 5 4 4 5 4 2 1 1 1 1 2 3 3 5 5 3 2 2 3 4 2 4 5 3 2 2 1 3 3 3 2 1 1 1 2 1 1 3 4 2 1 1 1 1 1 1 2 2 5 3 2 5 9 8 9 12 11 8 7 5 6 7 6 7 9 9 9 10 8 6 10 15 19 21 21 21 22 23 25 26 28 29 31 30 28
3 5 6 4 3 3 3 2 1 1 1 0 1 3 2 2 7 8 2 1 3 4 4 3 4 4 2 2 3 2 2 1 1 2 2 3 3 2 2 1 1 3 4 3 2 1 1 0 1 2 3 4 3 4 7 8 7 6 7 6 7 6 5 6 6 7 9 8 5 6 7 7 9 13 13 13 16 18 20 22 25 26 29 31 31 30 27 26
Wind_Direction
67 64 62 60 58 57 56 54 53 51 48 43 40 38 36 36 34 38 45 44 41 39 38 35 19 353 346 360 15 29 34 28 28 33 32 23 13 10 11 6 6 17 21 24 33 24 17 22 28 49 68 68 65 69 51 27 16 331 324 62 63 53 47 38 59 87 110 114 100 101 99 105 108 106 103 82 76 80 77 76 81 93 96 99 110 115 115 114
65 63 61 59 58 57 54 52 51 49 48 44 41 41 40 39 38 42 47 44 36 32 35 38 36 23 346 318 321 8 30 26 27 31 26 20 18 17 15 9 7 18 17 15 16 6 360 6 28 53 70 70 58 55 56 41 41 48 75 67 70 63 54 57 71 87 96 100 93 93 95 97 107 115 107 90 83 83 81 79 80 83 84 98 109 111 113 111
63 62 58 57 55 52 50 48 48 46 45 43 42 44 45 44 41 41 43 39 28 25 30 36 40 35 22 349 296 324 27 23 20 20 19 18 18 18 20 12 9 19 14 6 2 357 2 16 48 67 64 61 57 60 55 47 51 55 70 78 74 74 69 67 74 85 90 96 91 82 80 75 77 100 103 96 88 75 78 90 92 89 91 99 100 103 106 104
59 58 54 52 49 45 43 42 42 42 41 41 43 45 45 44 43 41 41 36 28 24 23 36 42 40 35 23 343 259 320 27 15 8 11 16 16 19 22 17 14 23 21 14 14 14 26 42 67 78 73 65 59 61 52 48 64 59 64 87 81 77 74 70 79 88 91 94 91 84 76 63 57 73 104 108 90 69 74 89 101 105 105 101 94 95 100 101
54 53 51 48 45 41 38 35 35 36 39 42 43 43 40 38 40 42 41 38 36 32 25 32 41 44 43 40 46 66 156 34 4 1 9 12 14 20 23 21 22 31 35 34 37 43 54 60 64 66 69 69 62 63 54 61 82 69 58 81 84 81 78 74 82 89 95 94 89 84 74 72 66 57 68 87 87 88 91 95 109 112 113 112 101 92 92 93
51 49 48 47 46 43 38 35 31 31 35 38 39 39 37 34 34 39 40 40 40 40 36 29 28 37 44 47 52 61 74 60 353 1 8 8 11 22 24 24 28 37 52 53 47 48 59 66 69 67 66 68 67 69 59 61 87 91 63 73 79 80 84 79 77 81 90 89 83 86 87 91 86 66 64 77 85 101 105 111 123 127 130 127 117 107 96 87
48 45 45 46 46 46 41 37 32 30 30 31 33 33 35 36 36 36 35 38 40 42 39 34 30 18 33 48 48 55 61 37 5 9 8 10 13 23 27 29 35 40 55 60 50 45 52 58 65 73 75 73 75 81 75 68 79 98 89 78 83 82 85 84 79 80 82 82 84 95 96 89 89 87 79 83 94 107 109 113 119 124 125 121 116 117 112 104
46 44 44 44 45 44 40 35 30 28 26 24 26 26 30 36 41 41 35 32 37 44 44 40 34 21 34 51 44 48 43 14 10 15 10 16 20 25 29 33 41 45 51 56 52 46 47 46 49 65 75 86 91 97 91 79 67 83 102 99 94 89 91 94 90 89 87 89 93 91 88 89 97 99 91 94 107 114 117 116 114 112 108 104 99 100 103 105
49 48 48 49 48 45 39 33 27 25 24 21 19 18 24 34 40 40 38 35 31 40 46 46 39 35 49 60 61 51 26 2 10 16 15 21 26 28 30 33 37 47 50 52 55 49 42 41 42 56 68 76 84 91 91 87 72 92 108 108 102 97 96 97 95 96 98 103 103 95 97 108 110 98 88 105 120 123 128 125 124 124 120 115 109 107 105 101
55 54 56 56 53 48 41 35 28 25 24 22 20 19 26 36 33 28 36 40 40 41 39 38 33 33 44 52 60 56 5 5 16 20 22 23 30 31 30 33 33 42 48 47 52 44 35 39 46 58 64 63 64 64 72 87 113 110 107 103 98 98 95 93 93 92 96 100 104 109 122 138 147 126 98 135 138 134 136 134 136 134 132 129 126 123 119 116
57 57 57 55 50 43 37 33 28 27 27 28 33 36 39 36 27 27 40 44 43 45 43 39 30 28 37 47 56 50 2 14 18 21 25 25 35 33 30 34 31 37 47 48 50 46 39 41 57 63 66 72 72 69 75 94 114 111 106 101 97 98 93 89 90 89 93 82 89 116 125 145 177 168 142 154 152 147 145 143 146 143 142 140 138 134 129 128
53 51 48 41 35 30 29 30 28 27 27 34 42 42 43 36 32 38 47 48 41 41 41 43 41 35 41 46 49 36 9 16 15 18 21 28 39 34 30 37 35 37 48 53 52 51 48 53 70 74 77 85 79 76 91 108 116 117 112 103 108 104 83 69 77 69 94 83 49 100 133 164 163 129 143 155 156 156 153 150 152 149 148 148 146 146 143 143
42 38 33 25 24 25 29 30 30 30 26 30 38 35 36 37 42 45 47 47 40 37 30 36 44 42 49 51 42 31 21 18 13 12 19 34 44 42 36 41 45 45 52 59 59 58 58 63 70 75 82 82 78 98 115 126 131 134 123 121 139 116 67 51 72 33 86 121 59 22 235 176 131 134 148 157 158 159 160 159 159 155 155 155 154 151 149 150
32 30 26 22 25 30 34 35 37 38 30 30 44 49 44 44 52 51 47 46 42 39 32 35 43 40 52 59 39 32 30 23 21 21 29 39 46 49 47 45 50 52 53 61 69 70 68 66 66 70 77 79 99 124 121 142 181 134 127 176 169 95 61 54 55 356 5 140 134 320 298 116 125 148 160 163 163 164 167 166 167 165 164 164 161 158 153 152
27 27 24 23 27 33 38 42 50 52 48 46 54 68 57 57 65 58 54 54 50 45 41 47 53 50 57 56 32 28 30 29 30 28 28 31 39 50 51 46 48 50 53 63 69 68 64 60 57 57 63 78 117 151 135 147 190 120 119 208 6 44 129 103 54 29 19 289 279 282 305 134 151 162 168 171 174 176 177 174 176 177 173 173 170 167 164 161
24 25 23 22 24 30 36 45 59 60 60 60 62 67 55 42 40 41 50 51 41 35 37 52 54 56 57 38 18 20 24 26 24 22 20 23 37 50 43 33 37 44 52 66 59 48 47 48 48 46 40 36 352 299 178 110 83 57 52 48 15 12 122 140 73 35 8 311 260 223 246 326 156 162 171 178 183 189 192 182 181 186 180 179 178 174 174 173
24 24 23 23 23 26 31 40 57 59 60 61 62 63 57 46 31 11 9 360 7 28 38 47 49 62 54 26 9 9 14 19 20 22 20 18 25 27 16 8 15 35 42 47 31 23 27 30 39 47 37 29 9 358 75 56 18 1 12 46 28 349 18 161 99 25 354 318 265 223 233 269 153 161 175 182 185 191 201 192 187 188 185 186 185 182 183 183
24 23 22 23 24 26 30 36 44 44 42 39 43 53 55 51 44 40 43 36 37 41 38 33 28 84 45 14 4 354 5 18 18 16 14 12 9 357 353 6 18 12 355 12 17 17 24 31 43 51 26 26 20 18 59 44 356 348 355 350 349 341 312 25 93 30 6 334 299 275 260 250 156 163 179 185 188 192 199 197 191 190 189 193 190 190 194 191
25 24 22 21 22 26 28 32 36 35 34 27 24 27 35 46 45 43 50 56 58 59 30 19 26 96 354 2 7 357 7 23 18 12 12 11 12 12 3 6 23 17 2 9 18 18 28 36 40 41 15 15 14 19 40 14 340 334 327 317 343 334 315 53 79 50 27 336 289 272 267 265 170 168 183 188 192 197 204 201 193 193 194 196 195 196 198 196
26 25 22 20 20 25 24 24 28 31 40 34 23 22 24 32 41 40 48 57 64 71 69 42 46 80 35 4 18 19 21 26 19 14 15 12 12 25 21 5 16 32 26 3 360 24 47 54 38 30 7 356 352 0 0 341 333 324 308 304 325 333 347 38 89 57 42 350 285 274 279 276 233 198 188 187 191 198 208 208 196 195 198 197 198 200 199 199
25 24 21 19 17 19 22 18 13 6 359 354 5 25 42 44 88 80 61 63 66 69 64 55 54 55 38 12 23 30 35 31 24 24 23 21 27 33 25 19 20 31 16 338 324 40 52 59 36 15 355 339 333 338 342 339 334 321 311 317 322 3 336 321 78 61 39 13 281 288 290 275 262 247 190 179 187 199 204 210 204 197 200 200 201 204 201 200
20 19 18 18 15 14 16 15 13 6 354 349 6 40 63 75 94 100 87 82 65 58 54 47 46 41 32 28 30 33 35 29 21 26 28 32 46 50 31 32 49 25 8 1 186 60 52 52 18 2 346 329 318 324 339 331 313 299 313 332 336 12 343 324 64 58 341 307 273 293 301 282 272 271 216 183 187 200 202 208 212 203 203 205 206 207 204 202
14 13 12 12 12 12 11 15 18 12 6 15 31 58 79 88 95 91 88 96 68 50 45 38 35 31 26 26 26 34 41 34 9 13 20 26 41 48 38 34 46 37 26 34 66 78 69 29 359 345 336 333 324 351 0 333 302 299 351 357 343 12 4 327 348 322 308 287 267 286 302 288 273 263 253 202 186 191 201 207 215 212 211 213 213 213 210 209
10 8 7 6 7 8 11 18 18 16 21 32 45 67 88 90 87 83 72 90 86 45 35 29 25 24 20 16 14 31 45 39 15 9 15 18 21 35 39 23 24 40 38 52 74 86 102 3 341 321 315 333 322 2 25 352 338 31 34 23 348 350 344 304 310 314 307 286 260 281 289 282 272 233 245 198 173 173 188 198 212 218 218 223 222 219 216 215
8 6 3 3 5 5 9 19 21 23 30 39 47 59 74 65 57 54 41 87 94 26 20 18 17 18 14 9 8 17 51 38 21 12 13 16 15 17 24 11 21 39 21 40 75 84 68 14 332 318 321 341 330 24 38 357 327 13 50 30 332 324 314 300 310 315 314 321 321 354 322 299 354 298 234 152 143 154 172 186 206 216 218 224 224 224 223 220
5 5 1 360 3 2 6 20 23 24 26 34 41 47 48 29 31 23 21 127 33 353 3 6 6 11 11 9 5 3 91 27 15 17 19 19 19 19 9 6 35 54 18 28 71 84 32 11 353 340 319 318 2 73 31 5 328 310 190 290 312 307 298 297 316 319 311 318 291 121 79 284 345 1 356 88 120 139 158 183 207 214 216 222 224 226 228 227
3 3 2 1 1 2 11 22 20 19 24 29 29 32 33 17 332 6 24 129 6 344 354 359 358 4 8 14 16 37 156 346 356 19 24 24 24 30 33 4 26 50 20 8 48 24 4 12 7 356 336 328 36 49 12 14 343 290 211 300 311 301 296 301 315 299 266 295 285 147 99 288 306 348 353 39 90 115 132 191 215 218 221 222 225 227 228 232
4 4 3 3 2 4 12 17 13 14 20 19 14 17 12 345 269 317 40 119 341 341 354 356 3 9 8 20 31 53 51 358 0 14 21 28 26 29 50 22 6 26 11 356 75 24 8 25 8 350 355 12 20 353 344 1 326 283 330 322 306 285 285 296 295 271 266 302 324 16 27 315 292 321 349 33 62 52 22 11 358 319 264 232 226 229 228 231
4 5 6 7 5 5 9 10 9 11 12 6 3 360 344 332 280 325 54 172 335 7 6 358 359 2 1 21 37 40 34 25 20 3 19 31 24 25 69 28 6 9 22 33 95 99 48 48 12 353 6 10 344 316 326 350 265 295 319 310 281 244 245 262 260 271 286 299 351 357 358 332 310 351 10 31 47 24 5 10 12 5 355 324 252 227 217 220
3 4 7 9 5 3 7 7 8 9 4 360 358 347 331 334 83 67 34 253 342 2 347 7 3 348 359 21 34 20 24 30 14 9 23 29 26 33 60 32 5 5 42 46 67 99 111 88 44 50 29 318 300 299 299 258 262 303 317 302 275 222 207 240 238 254 310 312 26 1 3 6 350 21 29 31 35 24 12 10 8 3 360 353 337 216 178 201
2 1 2 5 4 4 5 5 6 5 0 356 351 343 334 7 87 69 48 219 6 344 340 10 9 352 9 47 29 1 8 18 10 15 21 16 23 28 35 23 358 8 116 51 57 99 107 87 62 74 14 326 292 290 279 243 270 307 306 300 310 339 118 276 238 185 52 291 268 2 359 330 224 28 41 48 40 34 30 16 4 0 1 5 19 63 74 32
359 0 360 0 4 6 4 3 2 358 355 355 347 341 348 72 37 66 183 281 320 358 18 2 354 351 359 53 38 354 348 4 7 14 10 11 31 31 41 39 346 9 68 7 9 124 59 25 12 80 2 348 326 301 294 247 304 324 314 330 347 9 15 348 305 287 51 219 196 97 22 309 188 75 52 63 42 37 44 41 28 17 17 25 38 47 31 352
356 359 359 359 2 5 3 0 358 354 352 351 345 347 51 57 10 216 289 348 289 348 22 255 319 326 316 18 18 345 332 310 354 2 358 33 66 56 56 40 7 8 316 342 345 342 342 309 342 25 345 359 10 6 1 350 343 341 342 360 7 12 10 341 323 329 346 277 199 120 64 281 195 51 28 63 60 55 58 54 47 35 25 26 30 27 5 338
354 357 358 359 1 1 1 359 354 354 352 348 345 28 49 57 120 62 6 356 328 300 315 272 304 319 9 48 327 320 29 204 349 9 5 39 54 31 39 22 10 9 285 333 5 346 339 303 325 349 316 353 22 38 341 300 314 315 315 360 25 40 45 286 319 330 285 301 319 46 87 277 219 266 284 109 88 73 69 63 55 46 32 24 20 10 351 333
352 356 356 358 0 357 360 359 354 356 351 348 8 55 49 118 181 43 55 281 336 305 306 10 298 295 44 62 258 272 43 12 25 40 25 36 47 17 10 355 0 6 329 352 25 333 325 278 264 298 298 1 22 350 320 324 293 274 296 19 25 58 119 255 273 279 269 316 312 273 117 49 116 192 206 117 86 70 61 52 46 40 29 21 9 352 341 332
350 353 354 358 1 360 360 356 354 359 354 358 46 68 54 122 160 64 49 296 322 328 311 321 323 336 40 54 335 333 28 344 340 45 48 44 63 45 44 345 353 10 24 32 25 352 332 279 221 162 46 65 42 338 345 13 307 282 353 40 289 165 133 253 290 305 22 24 283 274 321 20 87 200 229 78 67 58 51 40 33 25 7 354 346 343 341 337
348 352 357 359 0 360 358 355 354 358 360 23 68 84 80 84 101 77 19 336 266 306 301 309 2 31 34 36 7 342 347 346 332 4 75 58 61 22 15 79 16 15 30 24 35 81 347 291 242 161 26 109 99 13 359 9 53 61 2 286 239 89 105 130 285 323 342 304 289 323 337 321 322 274 317 50 51 34 34 25 12 1 348 339 340 342 341 336
346 350 358 359 359 358 355 356 355 358 23 52 84 104 95 84 100 108 2 347 256 255 353 53 52 109 46 17 16 331 340 360 343 6 55 22 30 332 314 59 45 24 4 342 356 96 359 306 283 314 353 144 136 73 2 331 38 105 169 275 96 79 32 343 308 303 315 307 292 315 348 337 303 285 10 28 26 11 8 4 358 347 336 335 341 341 336 330
345 349 3 360 357 357 356 355 348 2 57 69 105 137 67 89 91 88 34 5 274 326 77 116 140 102 57 23 359 328 358 13 345 358 57 8 356 345 11 76 38 8 350 343 8 324 343 108 284 281 144 131 123 55 28 336 345 83 61 12 78 117 204 308 325 233 279 302 307 316 338 345 263 229 49 39 24 4 355 353 344 332 330 338 342 338 332 325
347 355 8 359 355 355 355 357 4 34 65 64 79 92 56 91 101 61 45 58 247 356 32 65 148 96 75 61 345 346 26 19 350 359 16 349 333 13 61 69 359 336 333 337 24 337 342 136 266 288 61 83 63 6 5 349 352 29 46 48 38 11 133 221 238 128 188 284 311 311 302 266 226 357 64 65 38 348 337 337 324 326 336 341 338 333 327 324
354 12 3 355 356 356 358 19 35 44 73 79 60 58 39 94 111 73 44 54 60 51 45 35 58 101 106 102 67 355 13 20 9 18 7 354 333 335 58 66 2 337 325 313 38 11 355 207 285 301 326 12 97 359 354 6 121 53 53 88 81 355 47 35 314 49 73 293 256 284 287 278 261 112 95 91 53 327 326 327 324 332 339 335 330 327 323 322
3 15 345 350 355 357 19 50 44 40 69 89 59 61 60 75 107 108 44 44 49 50 60 51 50 77 80 86 93 15 14 36 16 16 12 345 350 13 73 59 7 349 338 309 115 69 25 280 287 286 313 48 76 24 25 36 80 69 34 70 86 63 75 78 269 296 10 318 291 258 260 275 265 127 113 150 233 293 323 335 335 334 333 327 324 323 322 323
355 343 337 349 352 356 46 73 59 47 54 68 70 76 73 50 56 119 43 24 30 30 51 53 29 56 55 52 102 50 15 52 34 20 21 336 5 49 59 30 1 348 346 353 111 22 359 138 289 280 289 66 46 340 17 8 22 45 10 18 82 98 112 152 224 349 14 277 282 262 252 268 268 176 168 217 261 306 332 339 335 328 325 324 322 323 324 324
344 341 352 7 354 342 71 82 89 92 77 85 79 62 65 48 38 69 50 23 22 3 42 89 32 56 77 78 93 95 333 69 82 68 107 307 20 82 72 349 358 10 20 36 346 342 330 121 11 312 317 11 4 337 330 321 333 345 318 146 121 111 106 103 328 83 87 232 209 214 249 251 252 237 242 284 319 334 334 331 328 325 324 323 323 323 321 318
354 351 19 24 11 23 90 90 112 122 121 112 96 67 80 68 45 64 70 52 40 16 33 107 69 72 96 88 76 66 12 97 124 135 146 307 87 111 97 300 29 40 49 47 1 352 319 309 26 359 334 327 328 324 295 303 311 311 322 138 160 153 137 126 95 140 236 238 206 209 256 268 280 286 291 311 329 333 326 322 322 321 321 320 318 316 315 317
34 38 19 21 25 51 77 88 106 118 139 148 117 120 133 93 81 107 88 70 76 57 56 101 111 92 96 106 86 73 52 68 80 139 213 215 138 123 146 157 104 73 71 50 9 7 353 297 228 216 241 263 288 293 295 325 302 279 277 271 254 218 172 156 166 206 214 278 259 242 252 272 287 300 308 316 325 321 316 315 315 314 314 314 313 315 319 324
56 59 359 13 32 53 68 73 84 102 139 163 139 140 137 114 125 132 94 82 132 115 76 92 164 160 151 164 141 135 176 68 54 105 215 214 130 98 233 186 146 139 119 59 360 12 31 300 240 211 236 255 281 294 298 300 280 266 271 269 261 252 215 193 212 225 225 349 274 245 252 281 288 302 313 313 315 311 307 309 312 314 315 315 316 320 323 324
92 107 121 116 60 54 55 61 86 98 101 106 113 132 134 135 153 159 128 120 144 168 158 134 222 217 208 176 97 151 183 247 343 220 190 236 245 130 200 184 145 149 135 83 11 48 89 277 279 204 258 269 278 281 277 270 263 258 260 260 259 256 234 227 238 238 228 242 249 263 301 290 286 301 308 301 301 302 305 310 314 314 315 317 321 322 321 324
101 99 119 121 104 111 113 105 112 104 88 84 104 149 161 162 159 130 120 127 146 213 192 207 221 204 200 197 41 124 174 187 298 255 193 174 226 225 244 255 134 142 136 119 53 46 102 224 350 342 299 289 279 271 264 261 265 264 256 256 260 260 244 242 250 243 232 242 254 271 282 279 281 287 284 288 299 306 308 311 311 312 317 322 323 322 322 323
121 107 120 117 99 101 109 116 124 110 91 92 109 164 180 177 163 133 140 163 152 175 195 226 155 156 158 163 162 4 31 54 14 318 137 133 210 237 251 275 121 138 151 142 125 60 117 144 53 21 304 293 289 284 266 261 269 273 268 261 256 265 267 260 258 249 240 249 256 263 271 273 273 271 279 297 310 312 310 310 312 316 320 323 322 321 319 318
155 142 135 120 99 99 107 116 122 61 101 140 150 167 192 212 178 146 129 190 158 144 183 184 124 123 111 148 202 4 43 61 56 39 85 123 191 214 218 105 110 133 170 200 148 131 139 219 49 56 310 285 284 288 275 277 279 277 276 267 242 237 249 246 243 223 216 243 259 265 270 271 278 292 304 311 312 308 308 311 314 317 319 320 319 316 316 317
163 158 151 129 101 123 139 151 176 87 114 86 120 150 146 144 158 149 117 212 174 162 185 168 136 139 130 154 190 168 106 126 201 245 254 248 240 241 257 279 152 152 163 160 160 149 118 85 9 5 299 272 271 271 276 296 312 288 265 235 197 197 216 235 248 229 214 225 245 255 258 269 299 311 311 308 307 306 309 313 317 318 318 317 313 312 316 323